703  
ASUS44 KEWX 012011  
RWREWX  
SOUTH TEXAS REGIONAL WEATHER ROUNDUP  
NATIONAL WEATHER SERVICE AUSTIN/SAN ANTONIO TX  
200 PM CST MON MAR 01 2021  
 
NOTE: "FAIR" INDICATED FEW OR NO CLOUDS BELOW 12,000 FEET WITH NO  
SIGNIFICANT WEATHER AND/OR S TO VISIBILITY
.  
 
* - THESE STATIONS ARE NOT NWS OR FAA STATIONS...AND ARE NOT SUBJECT  
TO NWS AND FAA QUALITY CONTROL.
 
 
TXZ171-172-183>190-012100-  
TEXAS HILL COUNTRY AND EDWARDS PLATEAU  
 
CITY SKY/WX TMP DP RH WIND PRES REMARKS
 
JUNCTION CLOUDY 52 36 54 NE13G26 30.27F  
*LLANO CLOUDY 50 41 71 N12 30.25R WCI 46  
BURNET CLOUDY 49 42 77 N12G21 30.25R WCI 44  
*HORSESHOE BAY CLOUDY 51 43 73 N10G16 30.24R  
*LAGO VISTA CLOUDY 51 42 70 NE13G22 30.20S  
*KERRVILLE CLOUDY 51 41 68 N14G22 30.21R  
*FREDERICKSBRG CLOUDY 50 40 67 N15G22 30.22S WCI 45  
*ROCKSPRINGS CLOUDY 50 36 57 NE14G22 30.26F WCI 45  
*BOERNE CLOUDY 52 41 66 N15G24 30.17S  
*CASTROVILLE CLOUDY 58 43 56 N17 30.18S  
HONDO CLOUDY 56 40 55 N16 30.18S  
*UVALDE CLOUDY 56 41 58 NE12G20 30.22S  
DEL RIO CLOUDY 64 38 38 N12G18 30.23F  
*LAUGHLIN AFB PTSUNNY 63 39 42 N12G17 30.25F  
*SPOFFORD CLOUDY N/A N/A N/A N13 30.17F  
*EAGLE PASS NOT AVBL  
CARRIZO SPRGS CLOUDY 55 43 62 N14G21 30.19S  
*FAITH RANCH CLOUDY 57 43 58 N15G25 30.19F  

 
 
TXZ173-191>194-202-209-217>225-228-012100-  
CENTRAL AND SOUTH CENTRAL TEXAS  
 
CITY SKY/WX TMP DP RH WIND PRES REMARKS
 
GEORGETOWN CLOUDY 51 43 74 N17 30.22S  
*TAYLOR CLOUDY 50 45 83 N15 30.19S WCI 45  
AUSTIN/BERGSTM CLOUDY 56 43 61 N21G31 30.16F  
AUSTIN/MABRY N/A 54 42 64 N8G18 30.19F  
*PFLUGERVILLE CLOUDY 50 43 76 N20 30.19S WCI 44  
SAN MARCOS CLOUDY 55 43 63 N25G33 30.16F  
NEW BRAUNFELS CLOUDY 57 43 59 NE24G33 30.14R  
*RANDOLPH AFB CLOUDY 56 43 62 N22G33 30.13S  
*SEGUIN CLOUDY 54 43 67 N21G26 30.18R  
SAN ANTONIO CLOUDY 55 42 61 NE21G35 30.15S  
STINSON FIELD CLOUDY 56 43 61 NE15G25 30.13R  
*KELLY FIELD CLOUDY 57 43 61 NE14G26 30.12S  
*PLEASANTON CLOUDY 57 44 61 N12G21 30.15S  
*KENEDY CLOUDY 55 48 77 N23 30.11F  
*LA GRANGE NOT AVBL  
*GIDDINGS DRIZZLE 52 47 82 NE15G29 30.15R  
*GONZALES NOT AVBL  

 
 
TXZ163>164-176>182-195>201-210>213-226-227-235-012100-  
SOUTHEAST TEXAS  
 
CITY SKY/WX TMP DP RH WIND PRES REMARKS
 
COLLEGE STN CLOUDY 52 47 83 NE23G33 30.11F  
*BRYAN LGT RAIN 51 49 93 NE17G24 30.15F  
*CALDWELL LGT RAIN 52 47 83 NE12G28 30.16S  
*CROCKETT NOT AVBL  
*BRENHAM LGT RAIN 53 51 91 NE16G22 30.12F  
HUNTSVILLE LGT RAIN 52 50 93 NE8 30.15F FOG  
CONROE LGT RAIN 54 49 83 NE13G22 30.11S  
HOUSTON BUSH CLOUDY 59 51 75 NE21G26 30.08S  
HOUSTON HOBBY CLOUDY 62 53 72 N20G25 30.05S  
*HOUSTON SW AP CLOUDY 61 56 82 NE14 30.05F  
PEARLAND CLOUDY 62 54 74 NE13G28 30.05F  
HOUSTON HOOKS CLOUDY 56 50 80 N17G24 30.09S  
ELLINGTON FLD CLOUDY 61 54 77 N20 30.04F  
SUGAR LAND CLOUDY 61 55 81 N18 30.05F  
*HOUSTON EXEC N/A 57 52 82 NE24 N/A  
*CLEVELAND MUN CLOUDY 55 54 95 NE6 30.12R  
*WHARTON CLOUDY 59 53 80 N15G23 30.05F  
*COLUMBUS CLOUDY 54 51 89 NE12G21 30.09F  
*EAGLE LAKE CLOUDY 57 51 82 NE16G25 30.07F  

 
 
TXZ214>216-236>238-012100-  
THE UPPER TEXAS COAST  
 
CITY SKY/WX TMP DP RH WIND PRES REMARKS
 
*ORANGE CLOUDY 62 57 85 NE17G24 30.08S  
PORT ARTHUR N/A 60 60 100 N20 30.04F  
GALVESTON CLOUDY 63 56 78 N23G30 30.01F  
ANGLETON CLOUDY 64 56 75 N14 30.02F  
*BAY CITY CLOUDY 62 57 81 N14 30.01F  
PALACIOS CLOUDY 60 55 83 N23 30.01F  

 
 
TXZ229>234-239>247-012100-  
TEXAS COASTAL BEND AND RIO GRANDE PLAINS  
 
CITY SKY/WX TMP DP RH WIND PRES REMARKS
 
VICTORIA CLOUDY 55 51 86 N20G29 30.06F  
*BEEVILLE CLOUDY 55 54 95 N16G25 30.08R  
ROCKPORT CLOUDY 56 54 93 N15 30.02F  
*PORT ARANSAS CLOUDY 56 53 91 N20G25 30.03F  
*PORT LAVACA CLOUDY 59 54 82 N22G29 30.05R  
*INGLESIDE CLOUDY 57 53 87 N18G24 30.02S  
CORPUS CHRISTI DRIZZLE 54 51 90 N18 30.05R  
CORPUS NAS LGT RAIN 56 52 86 N20 30.02F FOG  
*ROBSTOWN CLOUDY 56 54 94 N15 30.07R FOG  
ALICE LGT RAIN 54 52 93 N16 30.07S FOG  
KINGSVILLE NAS LGT RAIN 54 51 90 N16 30.06S FOG  
COTULLA CLOUDY 57 46 66 N18G26 30.16F  
LAREDO CLOUDY 58 47 66 N20G28 30.13S  

 
 
TXZ248>255-012100-  
DEEP SOUTH TEXAS  
 
CITY SKY/WX TMP DP RH WIND PRES REMARKS
 
BROWNSVILLE LGT RAIN 65 61 87 N15 29.96R  
PORT ISABEL CLOUDY 60 57 89 N22G32 29.97R  
HARLINGEN CLOUDY 64 58 80 N20 29.99R  
*HEBBRONVILLE HVY RAIN 51 44 77 N13 30.10S  
MCALLEN LGT RAIN 56 53 90 NW21G29 30.04R  
*WESLACO NOT AVBL  
FALFURRIAS CLOUDY 50 49 97 N15G22 30.06S WCI 45  
EDINBURG CLOUDY 54 53 95 N21G30 30.05R FOG  
*ZAPATA CLOUDY 61 49 65 N17G25 30.12S  

 
 
TXZ213>215-236>238-242>244-246-247-251-254-255-012100-  
CMAN STATIONS  
 
STATION/POSITION TIME TEMP WIND PRES WAVE
 
AIR SEA DIR/SP/G HT/PER  
(UTC) (F) (DEG/KT/KT) (MB) (FT/S)  
NORTH JETTY/GLS 1924 63 58 20/ 23/ 26 1015.1  
EAGLE POINT 1924 63 62 20/ 15/ 21 1016.5  
MORGANS POINT 1930 61 62 30/ 15/ 20 1017.0  
MISSION/ARANSAS 1900 55 340/ 12 1018.0  
PORT O'CONNOR 1930 57 66 10/ 19/ 23 1016.4  
PORT ARANSAS 2000 55 58 360/ 21/ 23 1015.9  
MALAQUITE BEACH 1930 56 340/ 19/ 20 N/A  
BAFFIN BAY 1930 54 70 320/ 16/ 20 1016.6  
PORT ISABEL 1930 62 62 360/ 15/ 21 1016.4  

 
 
 
CLICK HERE TO GO TO PREVIOUS BULLETINS.

The Nexlab TX Page Main Text Page